Hourly Weather Roundup
Issued by NWS Central Illinois

Home | Current Version | Previous Version | Text Only | Print | Product List | Glossary On
Versions: 1 2 3 4 5 6 7 8 9 10 11 12 13 14 15 16 17 18 19 20 21 22 23 24 25 26 27 28 29 30 31 32 33 34 35 36 37 38 39 40 41 42 43 44 45 46 47 48 49 50
000
NZUS43 KILX 301710
HWRILX

AREA WEATHER ROUNDUP
NATIONAL WEATHER SERVICE, LINCOLN IL
1100 AM CST FRI JAN 30 2015


CITY           SKY/WX    TMP DP  RH WIND       PRES   REMARKS
BLOOMINGTON    MOSUNNY   28  18  66 N3        30.54S
CHAMPAIGN      SUNNY     30  15  53 NE5       30.53S WCI  25
DECATUR        SUNNY     32  17  54 NE7       30.54S WCI  26
FLORA          SUNNY     33  21  60 N9        30.55F WCI  26
GALESBURG      SUNNY     26  16  66 E5        30.54F WCI  21
JACKSONVILLE   SUNNY     32  19  58 E3        30.56S
LACON          SUNNY     28  14  57 CALM      30.55F
LAWRENCEVILLE  PTSUNNY   33  21  61 N14       30.55R WCI  23
LITCHFIELD     SUNNY     30  18  61 N6        30.54F WCI  24
$$


CITY           SKY/WX    TMP DP  RH WIND       PRES   REMARKS
LINCOLN        SUNNY     31  20  62 NE3       30.56F
MACOMB         SUNNY     27  18  69 CALM      30.58S
MATTOON        MOSUNNY   31  18  58 NE8       30.53S WCI  23
MT CARMEL AP   PTSUNNY   36  23  60 N7        30.54S WCI  30
OLNEY-NOBLE AP MOSUNNY   32  21  64 N9        30.55F WCI  24
PARIS          SUNNY     31  17  54 NW3       30.54S
PEORIA         SUNNY     30  16  56 E3        30.55F
PONTIAC        SUNNY     28  17  63 CALM      30.55S
RANTOUL        SUNNY     31  15  51 N7        30.54R WCI  24
ROBINSON       PTSUNNY   32  22  64 NW6       30.55S WCI  27
SPRINGFIELD    SUNNY     32  19  58 N3        30.56S
TAYLORVILLE    MOSUNNY   30  21  69 N7        30.55F WCI  23
$$

...REGIONAL REPORTS...


CITY           SKY/WX    TMP DP  RH WIND       PRES   REMARKS
CHICAGO O`HARE MOSUNNY   26   7  44 VRB3      30.52S
KANKAKEE       SUNNY     28  13  53 NW3       30.54S
MOLINE         SUNNY     24  11  57 E3        30.54F
MOUNT VERNON   MOSUNNY   34  19  55 N8        30.55F WCI  27
PITTSFIELD     SUNNY     31  18  58 CALM      30.56F
QUINCY         SUNNY     28  15  58 CALM      30.55F
ROCKFORD       MOSUNNY   25   8  48 N3        30.56S
$$


CITY           SKY/WX    TMP DP  RH WIND       PRES   REMARKS
BURLINGTON     SUNNY     26  15  63 VRB5      30.56S WCI  20
CEDAR RAPIDS   SUNNY     22  13  68 S6        30.53F WCI  14
DES MOINES     MOSUNNY   24  13  62 SW3       30.56S
KIRKSVILLE     SUNNY     28  18  66 CALM      30.56S
OTTUMWA        SUNNY     25  13  60 E3        30.55S
ST LOUIS       MOSUNNY   34  17  50 N6        30.57R WCI  29
$$


CITY           SKY/WX    TMP DP  RH WIND       PRES   REMARKS
TERRE HAUTE    SUNNY     33  15  47 N8        30.52S WCI  26
EVANSVILLE     MOSUNNY   38  22  52 N8        30.54R WCI  32
INDIANAPOLIS   PTSUNNY   27  15  61 N12       30.49S WCI  17
LAFAYETTE      PTSUNNY   28  16  60 N12       30.52S WCI  18
MADISON        PTSUNNY   20   8  60 W6        30.53R WCI  12
MILWAUKEE      MOSUNNY   23   6  48 VRB3      30.53R
$$





USA.gov is the U.S. government's official web portal to all federal, state and local government web resources and services.